Regional Weather Roundup
Issued by NWS

Home | Current Version | Previous Version | Graphics & Text | Print | Product List | Glossary On
Versions: 1 2 3 4 5 6 7 8 9 10 11 12 13 14 15 16 17 18 19 20 21 22 23 24 25 26 27 28 29 30 31 32 33 34 35 36 37 38 39 40 41 42 43 44 45 46 47 48 49 50
000
ASUS43 KLMK 290402
RWRKY
KENTUCKY REGIONAL WEATHER ROUNDUP
NATIONAL WEATHER SERVICE LOUISVILLE KY
1200 AM EDT SAT AUG 29 2015

NOTE "FAIR" INDICATES FEW OR NO CLOUDS BELOW 12,000 FEET
WITH NO SIGNIFICANT WEATHER AND/OR OBSTRUCTIONS TO VISIBILITY.

KYZ001>023-026-027-061>063-070>075-290500-
WESTERN AND SOUTH CENTRAL KENTUCKY

CITY           SKY/WX    TMP DP  RH WIND       PRES   REMARKS
PADUCAH        CLEAR     66  63  90 CALM      30.05S
HENDERSON      PTCLDY    68  61  77 SE3       30.06S
OWENSBORO      CLEAR     72  65  78 CALM      30.08F
HOPKINSVILLE   CLEAR     73  65  75 SE6       30.08S
BOWLING GREEN  CLEAR     70  64  81 CALM      30.10R
GLASGOW        CLEAR     69  64  84 CALM      30.11S
$$

KYZ024-025-028>034-038-045-046-053-290500-
NORTH CENTRAL KENTUCKY

CITY           SKY/WX    TMP DP  RH WIND       PRES   REMARKS
LOUISVILLE/SDF PTCLDY    75  61  61 E3        30.11R
LOUISVILLE/LOU CLEAR     74  61  63 E3        30.12S
FORT KNOX      CLEAR     69  63  81 E5        30.10S
$$

KYZ035>037-039>044-047>052-055>060-089>105-290500-
NORTHEAST KENTUCKY

CITY           SKY/WX    TMP DP  RH WIND       PRES   REMARKS
LEXINGTON      CLEAR     72  61  68 E5        30.14S
COVINGTON      NOT AVBL
FRANKFORT      CLEAR     68  60  75 E3        30.12S
$$

KYZ054-064>069-076>088-106>120-290500-
SOUTHEAST KENTUCKY

CITY           SKY/WX    TMP DP  RH WIND       PRES   REMARKS
JACKSON        CLEAR     70  63  78 CALM      30.17F
LONDON         CLEAR     68  62  81 CALM      30.16S
SOMERSET       NOT AVBL
MIDDLESBORO    PTCLDY    64  63  95 CALM      30.18F
MONTICELLO     CLEAR     62  62 100 CALM      30.17S FOG
$$




USA.gov is the U.S. government's official web portal to all federal, state and local government web resources and services.